Location: Newark
(54.2500°N, 9.1833°E)
Time: 16:32:04
(UTC+00:00)

Tiros 1 - All Passes

Search period start: 06 December 2019 00:00
Search period end: 16 December 2019 00:00
Orbit: 630 x 664 km, 48.4° (Epoch: 06 December)

Date Brightness Start Highest point End Pass type
(mag) Time Alt. Az. Time Alt. Az. Time Alt. Az.
06 Dec - 07:26:03 10° SSW 07:29:28 20° SSE 07:32:53 10° ESE daylight
06 Dec - 09:06:36 10° WSW 09:10:54 38° S 09:15:11 10° ESE daylight
06 Dec - 10:48:16 10° WSW 10:52:33 37° S 10:56:48 10° ESE daylight
06 Dec - 12:30:37 10° WSW 12:33:57 20° SSW 12:37:18 10° SSE daylight
07 Dec - 06:12:21 10° SSE 06:13:59 12° SE 06:15:37 10° ESE visible
07 Dec - 07:51:06 10° SW 07:55:08 29° SSE 07:59:09 10° E daylight
07 Dec - 09:32:21 10° WSW 09:36:43 41° S 09:41:04 10° ESE daylight
07 Dec - 11:14:17 10° W 11:18:19 30° SSW 11:22:19 10° SE daylight
07 Dec - 12:57:44 10° WSW 12:59:28 12° SW 13:01:12 10° SSW daylight
08 Dec - 06:36:08 10° SSW 06:39:29 20° SSE 06:42:49 10° ESE visible
08 Dec - 08:16:36 10° SW 08:20:54 37° S 08:25:10 10° ESE daylight
08 Dec - 09:58:14 10° WSW 10:02:33 38° S 10:06:49 10° ESE daylight
08 Dec - 11:40:32 10° WSW 11:43:59 21° SSW 11:47:25 10° SSE daylight
09 Dec - 05:22:44 10° SSE 05:24:00 11° SE 05:25:17 10° SE visible
09 Dec - 07:01:08 10° SW 07:05:08 28° SSE 07:09:07 10° E daylight
09 Dec - 08:42:20 10° WSW 08:46:43 41° S 08:51:04 10° ESE daylight
09 Dec - 10:24:14 10° W 10:28:19 31° SSW 10:32:23 10° SE daylight
09 Dec - 12:07:28 10° WSW 12:09:30 13° SW 12:11:32 10° SSW daylight
10 Dec - 05:46:14 10° SSW 05:49:30 19° SSE 05:52:45 10° ESE visible
10 Dec - 07:26:36 10° SW 07:30:53 36° SSE 07:35:10 10° ESE daylight
10 Dec - 09:08:12 10° WSW 09:12:33 39° S 09:16:50 10° ESE daylight
10 Dec - 10:50:27 10° WSW 10:53:59 22° SSW 10:57:31 10° SSE daylight
11 Dec - 04:33:20 10° SSE 04:34:02 10° SE 04:34:45 10° SE visible
11 Dec - 06:11:10 10° SW 06:15:08 28° SSE 06:19:05 10° E visible
11 Dec - 07:52:18 10° WSW 07:56:42 41° S 08:01:04 10° ESE daylight
11 Dec - 09:34:12 10° W 09:38:20 32° SSW 09:42:26 10° SE daylight
11 Dec - 11:17:16 10° WSW 11:19:32 14° SW 11:21:49 10° S daylight
12 Dec - 04:56:21 10° S 04:59:31 18° SSE 05:02:40 10° ESE visible
12 Dec - 06:36:35 10° SW 06:40:53 36° SSE 06:45:09 10° ESE visible
12 Dec - 08:18:10 10° WSW 08:22:32 39° S 08:26:52 10° ESE daylight
12 Dec - 10:00:22 10° WSW 10:04:01 23° SSW 10:07:37 10° SSE daylight
13 Dec - 05:21:12 10° SSW 05:25:08 27° SSE 05:29:03 10° E visible
13 Dec - 07:02:17 10° WSW 07:06:42 41° S 07:11:04 10° ESE daylight
13 Dec - 08:44:09 10° W 08:48:20 32° SSW 08:52:28 10° SE daylight
13 Dec - 10:27:05 10° WSW 10:29:33 14° SW 10:32:03 10° S daylight
14 Dec - 04:06:28 10° S 04:09:32 17° SSE 04:12:35 10° ESE visible
14 Dec - 05:46:35 10° SW 05:50:52 35° SSE 05:55:08 10° E visible
14 Dec - 07:28:08 10° WSW 07:32:32 40° S 07:36:53 10° ESE daylight
14 Dec - 09:10:18 10° W 09:14:01 24° SSW 09:17:43 10° SSE daylight
15 Dec - 04:31:14 10° SSW 04:35:08 26° SSE 04:39:01 10° E visible
15 Dec - 06:12:16 10° WSW 06:16:41 41° S 06:21:03 10° ESE visible
15 Dec - 07:54:06 10° W 07:58:19 33° SSW 08:02:29 10° SE daylight
15 Dec - 09:36:54 10° WSW 09:39:35 15° SW 09:42:16 10° S daylight
